Weather History for Algona, IA

Change the Weather History Date:

Monday, July 15, 2013

  Actual Average Record
Temperature  
Mean Temperature 76 °F -  
Max Temperature 87 °F 81 °F 93 °F (1999)
Min Temperature 64 °F 63 °F 51 °F (2014)
Cooling Degree Days 10    
Growing Degree Days 26 (Base 50)    
Moisture  
Dew Point 66 °F    
Average Humidity 68    
Maximum Humidity 94    
Minimum Humidity 45    
Precipitation  
Precipitation 0.00 in - - ()
Sea Level Pressure  
Sea Level Pressure 30.21 in    
Wind  
Wind Speed 7 mph (SSE)    
Max Wind Speed 14 mph    
Max Gust Speed 18 mph    
Visibility 9 miles    
Events      
Averages and records for this station are not official NWS values.
T = Trace of Precipitation, MM = Missing Value Source: NWS Daily Summary

Daily Weather History Graph

Daily Weather History Graph

Search for Another Location

Airport:

Trip Planner

Search our weather history database for the weather conditions in past years. The results will help you decide how hot, cold, wet, or windy it might be!

Date:

Astronomy

Jul. 15, 2013 Rise Set
Actual Time 5:51 AM CDT 8:54 PM CDT
Civil Twilight 5:17 AM CDT 9:28 PM CDT
Nautical Twilight 4:33 AM CDT 10:11 PM CDT
Astronomical Twilight 3:41 AM CDT 11:03 PM CDT
Moon 1:25 PM CDT (7/15) No Moon Set
Length of Visible Light 16h 10m
Length of Day
15h 02m
Waxing Crescent, 45% of the Moon is Illuminated
Jul 15
Waxing Crescent
Jul 15
First Quarter
Jul 22
Full
Jul 29
Last Quarter
Aug 6
New

Hourly Weather History & Observations

Time (CDT) Temp. Heat Index Dew Point Humidity Pressure Visibility Wind Dir Wind Speed Gust Speed Precip Events Conditions
12:15 AM 69.8 °F - 64.4 °F 83% 30.21 in 10.0 mi SE 5.8 mph - N/A   Mostly Cloudy
12:35 AM 69.8 °F - 64.4 °F 83% 30.21 in 10.0 mi SE 6.9 mph - N/A   Mostly Cloudy
12:55 AM 69.8 °F - 64.4 °F 83% 30.21 in 10.0 mi SE 6.9 mph - N/A   Partly Cloudy
1:15 AM 69.8 °F - 64.4 °F 83% 30.21 in 10.0 mi SE 6.9 mph - N/A   Clear
1:35 AM 69.8 °F - 64.4 °F 83% 30.20 in 10.0 mi SE 6.9 mph - N/A   Clear
1:55 AM 68.0 °F - 64.4 °F 88% 30.20 in 10.0 mi SE 6.9 mph - N/A   Clear
2:15 AM 68.0 °F - 62.6 °F 83% 30.21 in 10.0 mi SE 5.8 mph - N/A   Clear
2:35 AM 68.0 °F - 62.6 °F 83% 30.21 in 10.0 mi SE 5.8 mph - N/A   Clear
2:55 AM 68.0 °F - 62.6 °F 83% 30.21 in 10.0 mi SE 8.1 mph - N/A   Clear
3:15 AM 68.0 °F - 62.6 °F 83% 30.21 in 10.0 mi SE 6.9 mph - N/A   Clear
3:35 AM 68.0 °F - 62.6 °F 83% 30.21 in 10.0 mi SE 5.8 mph - N/A   Clear
3:55 AM 66.2 °F - 62.6 °F 88% 30.21 in 10.0 mi SE 5.8 mph - N/A   Clear
4:15 AM 66.2 °F - 62.6 °F 88% 30.21 in 10.0 mi SE 5.8 mph - N/A   Clear
4:35 AM 66.2 °F - 62.6 °F 88% 30.21 in 8.0 mi SE 5.8 mph - N/A   Clear
4:55 AM 66.2 °F - 62.6 °F 88% 30.21 in 9.0 mi SE 5.8 mph - N/A   Clear
5:15 AM 66.2 °F - 62.6 °F 88% 30.21 in 8.0 mi SE 4.6 mph - N/A   Clear
5:35 AM 66.2 °F - 62.6 °F 88% 30.22 in 8.0 mi SE 4.6 mph - N/A   Clear
5:55 AM 64.4 °F - 62.6 °F 94% 30.23 in 6.0 mi ESE 3.5 mph - N/A   Clear
6:15 AM 66.2 °F - 62.6 °F 88% 30.23 in 6.0 mi Calm Calm - N/A   Clear
6:35 AM 66.2 °F - 62.6 °F 88% 30.23 in 6.0 mi Calm Calm - N/A   Clear
6:55 AM 68.0 °F - 62.6 °F 83% 30.23 in 7.0 mi SSE 4.6 mph - N/A   Clear
7:15 AM 69.8 °F - 64.4 °F 83% 30.24 in 7.0 mi SSE 4.6 mph - N/A   Clear
7:35 AM 69.8 °F - 64.4 °F 83% 30.24 in 7.0 mi SSE 4.6 mph - N/A   Clear
7:55 AM 73.4 °F - 64.4 °F 73% 30.25 in 9.0 mi South 6.9 mph - N/A   Clear
8:15 AM 73.4 °F - 64.4 °F 73% 30.25 in 8.0 mi South 8.1 mph - N/A   Clear
8:35 AM 75.2 °F - 64.4 °F 69% 30.25 in 8.0 mi South 9.2 mph - N/A   Clear
8:55 AM 77.0 °F - 64.4 °F 65% 30.25 in 8.0 mi SSE 6.9 mph - N/A   Clear
9:15 AM 77.0 °F - 64.4 °F 65% 30.25 in 9.0 mi South 6.9 mph - N/A   Clear
9:35 AM 78.8 °F - 66.2 °F 65% 30.25 in 9.0 mi SSE 4.6 mph - N/A   Clear
9:55 AM 80.6 °F 82.7 °F 66.2 °F 61% 30.25 in - SSE 5.8 mph - N/A   Clear
10:15 AM 80.6 °F 82.3 °F 64.4 °F 58% 30.25 in 10.0 mi South 8.1 mph - N/A   Clear
10:35 AM 80.6 °F 82.7 °F 66.2 °F 61% 30.25 in 9.0 mi Variable 4.6 mph - N/A   Clear
10:55 AM 82.4 °F 84.6 °F 66.2 °F 58% 30.25 in 9.0 mi Variable 4.6 mph - N/A   Clear
11:15 AM 82.4 °F 83.9 °F 64.4 °F 54% 30.24 in 9.0 mi Variable 6.9 mph - N/A   Partly Cloudy
11:35 AM 84.2 °F 85.6 °F 64.4 °F 51% 30.25 in 9.0 mi Variable 5.8 mph 12.7 mph N/A   Scattered Clouds
11:55 AM 84.2 °F 84.4 °F 60.8 °F 45% 30.24 in 10.0 mi Variable 4.6 mph 12.7 mph N/A   Partly Cloudy
12:15 PM 84.2 °F 85.0 °F 62.6 °F 48% 30.24 in 10.0 mi South 8.1 mph - N/A   Clear
12:35 PM 84.2 °F 85.6 °F 64.4 °F 51% 30.24 in 9.0 mi SSE 6.9 mph 12.7 mph N/A   Clear
12:55 PM 84.2 °F 85.6 °F 64.4 °F 51% 30.24 in 10.0 mi ESE 9.2 mph - N/A   Scattered Clouds
1:15 PM 84.2 °F 85.6 °F 64.4 °F 51% 30.23 in 9.0 mi Variable 5.8 mph 12.7 mph N/A   Mostly Cloudy
1:35 PM 86.0 °F 87.3 °F 64.4 °F 48% 30.23 in 9.0 mi South 9.2 mph - N/A   Mostly Cloudy
1:55 PM 84.2 °F 86.6 °F 66.2 °F 55% 30.23 in 9.0 mi SE 6.9 mph - N/A   Mostly Cloudy
2:15 PM 84.2 °F 86.6 °F 66.2 °F 55% 30.22 in 10.0 mi SE 6.9 mph - N/A   Overcast
2:35 PM 86.0 °F 89.4 °F 68.0 °F 55% 30.21 in 9.0 mi SSE 8.1 mph - N/A   Mostly Cloudy
2:55 PM 86.0 °F 88.2 °F 66.2 °F 51% 30.20 in 10.0 mi SSE 9.2 mph 16.1 mph N/A   Mostly Cloudy
3:15 PM 84.2 °F 86.6 °F 66.2 °F 55% 30.20 in 10.0 mi SE 11.5 mph - N/A   Mostly Cloudy
3:35 PM 84.2 °F 87.3 °F 68.0 °F 58% 30.20 in 9.0 mi SE 6.9 mph 15.0 mph N/A   Overcast
3:55 PM 84.2 °F 87.3 °F 68.0 °F 58% 30.19 in 10.0 mi SE 9.2 mph - N/A   Mostly Cloudy
4:15 PM 86.0 °F 89.4 °F 68.0 °F 55% 30.19 in 10.0 mi SE 10.4 mph - N/A   Mostly Cloudy
4:35 PM 87.8 °F 91.4 °F 68.0 °F 52% 30.18 in 10.0 mi ESE 11.5 mph 18.4 mph N/A   Partly Cloudy
4:55 PM 86.0 °F 89.4 °F 68.0 °F 55% 30.18 in 10.0 mi SE 9.2 mph 16.1 mph N/A   Scattered Clouds
5:15 PM 86.0 °F 89.4 °F 68.0 °F 55% 30.18 in 9.0 mi SSE 10.4 mph - N/A   Scattered Clouds
5:35 PM 87.8 °F 91.4 °F 68.0 °F 52% 30.17 in 10.0 mi SSE 10.4 mph - N/A   Mostly Cloudy
5:55 PM 87.8 °F 91.4 °F 68.0 °F 52% 30.17 in 10.0 mi South 11.5 mph - N/A   Mostly Cloudy
6:15 PM 87.8 °F 91.4 °F 68.0 °F 52% 30.16 in 10.0 mi SSE 12.7 mph - N/A   Mostly Cloudy
6:35 PM 86.0 °F 89.4 °F 68.0 °F 55% 30.16 in 10.0 mi SSE 9.2 mph 15.0 mph N/A   Scattered Clouds
6:55 PM 86.0 °F 89.4 °F 68.0 °F 55% 30.16 in 10.0 mi SSE 13.8 mph - N/A   Scattered Clouds
7:15 PM 86.0 °F 89.4 °F 68.0 °F 55% 30.15 in 10.0 mi SSE 10.4 mph - N/A   Partly Cloudy
7:35 PM 84.2 °F 87.3 °F 68.0 °F 58% 30.16 in 10.0 mi SSE 6.9 mph - N/A   Clear
7:55 PM 84.2 °F 87.3 °F 68.0 °F 58% 30.16 in 10.0 mi SSE 6.9 mph - N/A   Clear
8:15 PM 84.2 °F 88.4 °F 69.8 °F 62% 30.17 in 10.0 mi SSE 8.1 mph - N/A   Clear
8:35 PM 82.4 °F 85.4 °F 68.0 °F 62% 30.17 in 10.0 mi SSE 9.2 mph - N/A   Clear
8:55 PM 80.6 °F 83.2 °F 68.0 °F 65% 30.17 in 10.0 mi SSE 8.1 mph 13.8 mph N/A   Clear
9:15 PM 80.6 °F 83.2 °F 68.0 °F 65% 30.17 in 10.0 mi SSE 8.1 mph - N/A   Clear
9:35 PM 80.6 °F 83.2 °F 68.0 °F 65% 30.17 in 10.0 mi SSE 8.1 mph - N/A   Clear
9:55 PM 78.8 °F - 68.0 °F 69% 30.18 in 10.0 mi SSE 6.9 mph - N/A   Clear
10:15 PM 78.8 °F - 68.0 °F 69% 30.19 in 10.0 mi SE 6.9 mph - N/A   Clear
10:35 PM 77.0 °F - 69.8 °F 78% 30.19 in 10.0 mi SE 4.6 mph - N/A   Clear
10:55 PM 77.0 °F - 69.8 °F 78% 30.19 in 10.0 mi SSE 5.8 mph - N/A   Clear
11:15 PM 77.0 °F - 69.8 °F 78% 30.20 in 10.0 mi SSE 8.1 mph - N/A   Clear
11:35 PM 77.0 °F - 69.8 °F 78% 30.20 in 10.0 mi SSE 9.2 mph - N/A   Clear
11:55 PM 77.0 °F - 69.8 °F 78% 30.20 in 10.0 mi SSE 10.4 mph - N/A   Clear